Probability
5 4 3 2 1 0 0 0 0 0 0 0 0 0 0 0 0 0 0 0 0 0 0 0 0 0 0 0 0 0 0 0 0 0 0 0 0 0 1 2 2 2 2 2 1 2 2 2 2
6 3 2 1 1 0 0 0 0 0 0 0 0 0 0 0 0 0 0 0 0 0 0 0 0 0 0 0 0 0 0 0 0 0 0 0 0 0 1 2 2 1 1 1 0 1 1 1 1
4 2 0 0 0 0 0 1 1 0 0 0 0 0 0 0 0 1 1 0 0 0 1 1 1 0 0 0 0 0 0 0 0 0 0 0 0 0 0 1 1 0 0 0 0 0 0 0 0
2 1 0 0 0 0 0 1 1 0 0 0 0 0 0 0 1 2 1 0 0 1 2 2 2 1 0 0 0 0 0 0 0 0 0 0 0 0 0 0 0 0 0 0 0 0 0 0 0
0 0 0 0 0 0 0 1 1 0 0 0 0 0 0 1 2 2 1 0 1 2 3 3 3 1 0 0 0 0 0 0 0 0 0 0 0 0 0 0 0 0 0 0 0 0 0 0 0
0 0 0 0 0 0 0 0 0 0 0 0 0 0 1 1 3 2 1 1 2 3 3 3 3 2 1 0 0 0 0 0 0 0 0 1 1 0 0 0 0 0 0 0 0 0 0 0 0
0 0 0 0 0 0 0 0 0 0 0 0 0 0 1 2 3 3 2 2 3 3 3 3 3 3 2 1 0 0 0 0 0 0 0 1 1 0 0 0 0 0 0 0 1 1 1 1 1
0 0 0 0 0 0 0 0 0 0 0 0 0 0 1 3 3 3 3 3 3 3 3 3 2 2 2 1 0 0 0 0 0 0 0 0 0 0 0 0 0 0 0 1 2 2 2 2 2
0 0 0 0 0 0 0 0 0 0 0 0 0 0 1 2 3 3 3 3 3 3 3 1 1 1 1 0 0 0 0 0 0 0 0 0 0 0 0 0 0 0 0 1 3 3 3 3 2
0 0 0 0 0 0 0 0 0 0 0 0 0 0 1 2 3 3 2 1 1 2 2 1 0 0 0 0 0 0 0 0 0 0 0 0 0 0 0 0 1 0 0 1 2 2 2 1 1
0 0 0 0 0 0 0 0 0 0 0 0 1 1 1 2 3 2 1 0 0 1 1 0 0 0 0 0 0 0 0 0 0 0 0 0 0 0 0 0 0 0 0 1 1 1 1 0 0
0 0 0 0 0 0 0 0 0 0 0 0 1 1 1 2 2 1 0 0 0 0 0 0 0 0 0 0 0 0 0 0 0 0 0 0 0 0 0 0 0 0 0 0 0 0 0 0 0
0 0 0 0 0 0 0 0 0 0 0 0 0 1 2 2 2 1 1 1 1 1 0 0 0 0 0 0 0 0 0 0 0 0 0 0 0 0 0 0 0 0 0 0 0 0 0 0 0
0 0 0 0 0 0 0 0 0 0 0 0 0 0 1 2 2 1 1 2 2 2 1 0 0 0 0 0 0 0 0 0 0 0 0 0 0 0 0 0 1 1 0 0 0 0 0 0 0
0 0 0 0 0 0 0 0 0 0 0 0 0 0 0 1 1 0 0 1 2 2 1 1 1 1 1 1 1 1 1 1 1 1 0 0 0 0 0 0 1 2 1 0 0 0 0 0 0
0 0 0 0 0 0 0 0 0 0 0 0 0 0 0 1 2 1 0 1 2 2 3 3 3 3 3 2 2 3 4 4 3 2 1 0 1 1 0 1 2 3 4 2 0 0 0 0 0
0 0 0 0 0 0 0 0 0 1 0 0 0 0 0 1 2 1 0 1 3 4 4 5 5 5 5 3 3 3 4 4 3 2 1 0 1 1 1 2 3 5 5 3 1 0 0 0 0
0 0 0 0 0 0 0 0 0 0 0 0 0 0 0 0 1 2 2 2 3 4 4 4 5 5 5 3 2 2 3 3 2 1 1 1 1 1 2 3 4 5 5 3 1 0 0 0 0
0 0 0 0 0 0 0 0 0 0 0 0 0 0 0 0 1 3 4 4 4 4 3 4 4 4 4 3 3 2 3 4 3 2 2 1 1 1 2 3 3 5 4 2 1 0 0 0 0
0 0 0 0 0 0 0 1 1 1 0 0 0 0 0 0 1 3 5 5 4 3 3 3 4 4 4 3 3 3 3 4 5 4 3 2 1 1 1 1 2 4 4 2 1 0 0 0 0
0 0 0 0 0 0 0 1 2 1 0 0 0 0 0 0 0 2 5 6 6 4 3 3 3 4 4 3 3 4 4 4 4 4 3 2 2 2 2 1 1 2 2 3 2 1 0 0 0
0 0 0 0 0 0 0 0 1 1 0 0 0 0 0 0 0 1 4 7 7 6 4 4 4 5 4 2 2 4 5 5 5 4 3 2 1 1 1 1 1 1 1 2 3 2 0 0 0
0 0 0 0 0 0 0 0 0 0 0 0 0 0 0 0 0 1 4 8 10 10 8 6 6 6 4 2 2 4 6 7 6 4 3 2 1 0 0 0 0 0 0 1 2 1 1 1 0
0 0 0 0 0 0 0 0 0 0 0 0 0 0 0 0 0 1 5 10 13 14 12 8 6 5 4 3 3 4 6 7 6 5 3 3 1 0 0 0 0 0 0 0 0 1 1 1 1
0 0 0 0 0 0 0 0 0 0 0 0 0 0 0 0 0 2 6 11 13 14 13 10 7 5 4 3 3 4 4 5 5 5 4 3 2 1 0 0 0 0 0 0 0 1 1 1 0
0 0 0 0 0 0 0 0 0 0 0 0 0 0 0 0 0 3 8 11 12 12 12 11 8 7 5 4 3 3 3 3 4 4 3 3 2 1 0 0 0 0 0 0 0 1 0 0 0
0 0 0 0 0 0 0 0 0 0 0 0 0 0 0 0 1 4 9 10 9 10 11 10 9 8 6 5 3 2 2 2 3 3 3 3 1 0 0 0 0 0 0 0 0 0 0 0 0
0 0 0 0 0 0 0 0 0 0 0 0 0 0 0 1 1 4 8 8 7 7 9 8 7 6 5 4 3 3 3 3 4 3 3 2 1 0 0 0 0 0 0 0 0 0 0 0 0
0 0 0 0 0 0 0 0 0 0 0 0 0 0 1 2 2 4 6 7 5 5 6 5 4 4 4 3 3 4 5 5 5 3 2 1 0 0 0 0 0 0 0 0 0 0 0 0 0
0 0 0 0 0 0 0 0 0 0 0 0 0 1 2 3 3 4 5 6 6 4 4 4 3 3 3 3 3 5 6 6 5 3 1 0 0 0 0 0 0 0 0 0 0 0 0 0 0
Wind_Speed
9 10 6 2 2 1 5 6 8 7 7 8 8 10 12 12 9 8 2 3 8 10 11 10 11 10 10 11 11 11 11 11 11 11 12 12 13 13 12 12 12 12 12 12 12 11 11 11 10
10 7 4 2 1 2 5 7 8 8 6 5 8 11 12 12 11 8 3 4 8 10 10 10 10 10 10 10 10 10 10 10 11 11 12 12 13 13 12 12 12 12 12 12 12 11 11 10 10
12 7 3 1 2 4 6 6 6 7 5 5 8 10 9 8 9 6 4 6 9 11 11 10 10 10 10 9 10 10 10 11 11 12 12 12 12 13 12 12 12 12 12 12 12 11 11 10 10
6 3 2 1 6 6 7 6 5 7 6 7 8 9 10 8 6 7 6 8 10 11 11 9 10 10 10 9 9 10 10 11 11 11 11 11 12 12 12 12 12 12 12 11 11 11 11 10 9
3 2 1 3 5 6 6 5 5 6 6 8 11 11 10 9 9 8 7 8 8 9 10 9 10 10 10 10 10 10 10 10 10 11 11 12 12 12 12 12 12 12 11 11 11 10 10 10 9
2 2 1 4 5 6 6 5 6 7 7 8 10 11 8 7 7 6 7 7 7 9 10 10 10 10 10 10 10 10 10 10 10 10 11 11 12 13 12 12 11 11 11 10 10 10 10 10 9
2 1 2 6 5 5 6 5 5 6 7 6 7 10 8 7 6 6 7 6 6 7 8 8 9 9 10 10 10 10 9 9 9 9 10 10 11 12 12 11 10 10 10 9 9 9 9 8 7
2 1 2 4 4 5 5 5 5 6 6 6 6 7 8 8 7 6 6 6 5 5 6 7 7 8 8 7 9 9 9 8 8 7 7 8 9 9 10 10 9 9 9 8 8 7 7 6 5
2 0 2 3 3 5 6 5 6 6 8 8 9 10 11 11 8 6 5 5 4 5 5 6 6 7 7 7 8 7 7 6 6 5 5 5 4 5 6 8 9 8 7 6 5 5 4 3 2
1 1 2 3 4 5 6 5 4 5 7 7 9 11 12 10 8 6 6 6 6 4 5 5 5 6 6 5 5 3 4 3 2 3 4 3 3 4 5 6 7 6 5 4 3 2 2 1 0
2 2 3 5 4 5 5 4 4 5 5 5 7 10 9 8 6 6 5 5 5 5 4 4 4 5 5 3 3 2 2 2 2 3 5 4 3 3 3 2 3 2 3 1 1 1 1 2 2
2 3 3 4 3 3 3 4 4 4 5 6 7 8 8 6 5 4 4 5 6 6 4 3 4 4 5 4 3 2 2 2 2 2 4 3 2 2 2 2 2 1 1 1 1 1 3 3 3
3 3 4 3 3 2 3 3 3 4 5 6 8 7 6 5 5 4 4 5 6 5 4 3 3 4 5 4 2 3 2 2 3 2 3 3 2 2 2 2 2 2 1 1 1 2 3 3 4
2 4 4 3 3 2 3 3 2 2 3 5 6 6 6 5 4 4 4 4 4 5 5 3 2 3 5 4 2 3 3 3 3 2 2 3 3 2 2 2 2 1 1 2 2 3 2 3 3
4 3 3 3 3 3 3 1 1 2 3 5 6 5 5 5 5 4 4 4 4 4 5 3 2 3 3 4 3 3 2 3 2 1 2 3 3 3 3 2 2 2 2 2 2 3 2 3 3
6 6 5 4 4 4 3 2 2 2 3 4 4 6 4 4 4 5 4 3 3 4 5 5 3 3 3 3 3 2 2 3 2 2 2 3 4 4 3 2 2 2 2 2 2 2 2 2 2
5 5 5 6 5 4 4 2 3 3 3 3 4 5 5 4 4 4 4 4 3 3 4 4 4 3 3 3 3 3 3 2 2 2 2 2 3 4 3 2 2 2 2 2 2 2 2 1 1
4 5 5 4 4 4 3 3 3 3 3 3 3 4 5 5 4 5 4 4 3 3 3 4 4 3 3 2 2 2 3 2 2 2 2 2 2 3 3 2 2 3 2 2 2 2 1 1 0
6 6 4 2 3 4 3 3 4 4 3 3 3 3 4 4 4 5 5 4 3 2 2 3 3 3 3 2 2 2 2 2 2 2 2 2 2 2 2 2 2 2 2 1 2 2 2 2 1
6 6 4 2 2 3 3 3 2 4 4 2 2 2 3 4 4 4 5 4 3 2 1 2 2 3 3 2 2 2 2 2 2 1 2 2 2 2 2 2 2 1 1 2 1 1 1 1 2
7 5 4 3 3 5 4 4 4 3 3 3 2 2 2 3 5 4 4 3 2 1 1 1 2 2 3 2 2 2 2 1 2 1 1 1 1 1 2 2 2 1 2 1 1 2 1 1 1
6 4 5 5 5 4 6 3 3 5 4 5 4 3 2 2 3 5 4 4 3 2 1 1 2 2 2 3 2 2 2 2 1 1 1 1 1 1 1 1 1 1 1 1 1 2 1 1 1
5 5 7 8 7 8 8 5 3 4 4 4 4 4 3 3 2 3 4 4 3 2 2 2 2 2 2 2 1 1 2 1 1 1 2 1 1 1 1 1 1 1 1 1 1 2 1 1 0
5 7 8 8 5 7 9 6 1 2 2 2 3 4 3 3 3 2 3 4 3 3 2 1 2 2 1 1 1 2 2 2 3 2 2 1 1 0 1 1 1 1 1 1 1 1 1 0 0
6 5 3 4 5 5 4 3 2 3 4 4 3 2 3 3 3 3 4 4 3 3 2 1 2 2 1 1 1 1 1 1 2 2 2 2 1 1 1 1 0 0 0 1 1 0 1 1 0
7 6 4 3 4 3 3 2 3 4 5 5 4 4 4 4 3 3 4 4 3 3 2 1 1 1 1 1 1 1 1 1 1 1 1 2 1 1 2 1 1 0 0 0 0 0 0 0 0
6 5 5 7 8 6 3 4 5 5 5 4 4 4 4 4 4 4 4 4 3 2 2 1 1 2 1 1 1 1 1 1 0 1 1 1 1 1 1 1 1 1 0 0 0 0 0 0 0
6 6 3 4 4 5 3 2 2 5 4 4 4 4 5 4 4 4 4 3 3 2 1 1 2 2 1 1 1 1 1 1 1 1 1 1 1 2 2 2 1 1 1 1 1 0 0 0 0
6 6 5 5 5 4 3 0 3 4 4 4 4 5 5 5 4 3 3 3 3 2 2 2 1 2 2 1 1 1 1 1 1 1 0 0 1 1 2 1 1 0 0 1 1 0 1 0 1
4 6 5 4 5 5 4 0 4 5 5 5 5 5 5 5 4 3 3 3 3 2 2 1 1 1 1 1 1 1 1 1 1 1 0 0 0 1 1 1 1 1 1 1 0 1 1 1 1
Wind_Direction
274 259 254 264 272 102 68 65 67 53 57 53 47 60 64 52 53 86 132 92 94 95 94 79 67 69 69 70 71 70 68 67 65 64 63 64 65 70 73 74 76 73 71 70 73 77 75 73 72
279 278 276 246 260 83 72 67 67 61 63 69 62 63 71 66 73 94 108 93 94 90 86 78 71 71 72 70 71 72 70 70 70 67 65 66 68 70 71 72 75 73 72 70 71 75 75 75 72
267 266 268 268 45 74 82 77 83 81 62 69 72 60 56 65 78 98 119 103 90 87 85 81 75 74 76 75 74 73 71 72 71 69 67 69 72 72 73 74 74 74 73 72 70 73 75 73 68
270 265 247 68 68 66 88 103 98 89 72 67 79 75 69 60 85 114 123 104 95 96 94 87 80 78 79 79 78 77 75 75 73 72 70 71 74 75 74 73 73 73 73 73 72 71 71 70 66
246 261 183 93 80 76 69 85 93 85 79 77 84 87 85 79 95 111 108 101 103 104 105 99 90 84 84 82 81 79 80 80 78 76 74 75 76 76 75 74 73 73 74 75 74 71 69 67 64
270 258 111 94 85 82 80 75 83 91 87 87 97 99 95 108 107 110 101 99 102 107 111 113 103 96 92 89 87 84 84 83 83 82 81 80 81 80 80 77 75 74 76 78 78 75 73 70 65
281 302 97 102 94 81 72 69 75 87 83 82 96 102 112 122 123 119 113 107 104 110 115 120 126 113 101 96 93 92 92 92 91 90 89 88 88 87 87 83 80 80 81 81 82 80 75 71 66
281 322 85 94 103 93 87 85 77 82 85 85 84 102 124 132 131 124 122 117 116 120 118 124 127 126 123 112 106 105 106 108 107 104 100 99 100 98 95 89 86 87 87 86 88 85 82 75 62
275 287 76 82 98 106 105 97 93 96 87 78 74 92 119 131 135 132 127 117 107 103 112 117 128 130 126 123 124 127 123 124 125 125 123 120 112 108 101 96 95 94 97 96 98 98 97 91 66
205 86 87 85 87 101 105 105 109 114 104 101 101 109 124 136 143 147 142 136 131 123 113 118 121 121 117 119 131 142 132 135 147 132 126 117 100 91 97 106 107 107 109 109 112 123 124 97 14
133 106 81 77 81 98 112 114 101 100 101 106 114 125 133 143 150 148 137 133 126 115 103 116 116 113 113 112 117 114 109 125 111 97 102 98 98 108 106 117 120 113 112 103 86 85 46 56 52
117 98 83 92 82 92 107 99 86 81 88 102 110 124 137 145 142 138 133 128 121 116 116 111 115 113 110 106 108 115 109 100 84 82 102 103 98 100 101 99 100 100 79 53 37 48 64 53 58
142 130 107 104 113 121 107 105 94 89 94 103 114 126 139 143 138 128 116 112 117 123 122 112 114 116 112 104 116 113 103 103 101 84 96 102 99 95 89 82 72 71 66 51 31 51 58 52 47
151 147 141 138 147 142 120 104 111 105 113 122 125 134 141 140 136 126 119 115 115 124 120 114 117 109 114 121 131 104 113 110 101 107 117 110 104 99 97 93 74 64 64 59 45 54 56 66 62
185 172 163 171 185 162 127 95 139 145 147 146 144 137 141 145 142 139 138 129 130 127 123 117 108 101 107 112 104 106 103 101 105 111 110 114 108 94 89 85 75 56 49 55 51 47 41 70 73
203 204 195 190 204 180 179 183 147 161 164 158 144 135 128 129 136 132 131 121 130 130 121 124 118 102 92 96 94 100 101 96 98 89 66 84 98 96 88 84 79 72 58 46 56 66 51 60 65
223 223 207 186 196 184 184 184 146 166 167 157 152 142 143 143 137 125 125 120 108 112 117 122 113 109 103 92 95 91 98 96 83 75 63 56 75 95 96 88 83 81 70 48 39 58 53 65 66
227 239 228 190 178 182 195 182 159 167 172 161 146 141 141 139 134 119 103 100 97 101 108 113 113 112 109 100 103 90 78 77 85 85 86 72 63 80 90 87 74 75 73 56 44 48 37 61 68
261 266 259 193 169 190 211 213 172 171 179 170 158 144 144 135 123 119 111 103 102 80 89 105 117 124 116 106 107 108 105 89 74 72 75 90 89 87 99 91 82 79 85 75 66 51 36 27 42
264 277 281 235 203 230 221 236 193 174 178 160 141 136 136 135 126 122 119 113 104 108 92 104 113 119 115 119 120 111 101 95 90 70 57 60 69 77 96 100 101 101 97 81 74 86 69 18 41
249 251 262 267 262 244 241 241 206 181 175 166 165 162 154 151 147 138 127 121 108 108 157 122 101 97 102 99 98 96 91 91 83 76 57 44 44 62 69 90 88 90 96 109 114 84 82 67 358
253 257 263 264 268 254 238 248 199 167 176 179 177 171 156 153 144 143 141 134 134 121 112 96 101 102 101 102 104 143 139 133 140 141 135 100 51 62 73 94 107 102 86 79 66 77 74 96 26
266 276 261 251 253 266 253 249 207 164 178 172 166 159 145 141 130 136 144 145 139 125 111 118 109 101 88 109 130 136 130 140 137 133 126 117 77 58 85 59 76 95 97 99 78 72 56 65 98
269 268 259 244 241 250 246 238 196 160 158 142 125 128 137 138 132 127 122 119 117 103 80 83 104 87 84 85 112 133 147 169 156 152 148 152 136 111 78 61 61 86 118 120 102 105 111 108 32
255 255 257 226 218 235 234 216 131 96 90 93 91 95 105 113 121 120 114 118 113 107 89 58 90 86 79 74 67 76 138 175 165 158 162 150 140 126 131 111 248 278 93 107 109 102 152 169 154
249 241 251 270 259 266 242 187 122 107 91 91 96 86 86 98 98 97 102 102 105 113 123 113 116 117 93 98 88 81 50 41 93 139 146 145 145 153 155 152 169 137 40 30 101 81 166 136 132
269 248 256 270 278 275 231 152 139 112 105 99 90 85 81 87 90 89 93 99 100 106 112 127 119 127 134 138 106 102 90 48 13 163 145 143 151 147 129 131 184 179 141 314 90 70 196 127 162
265 294 278 259 272 271 263 237 160 137 126 118 96 79 68 69 89 96 97 97 100 106 116 108 95 101 103 105 106 112 126 123 69 67 74 118 162 154 159 178 196 174 176 213 83 22 295 129 196
216 241 256 268 262 266 265 27 50 97 112 104 93 82 76 67 68 87 95 94 99 103 99 85 77 74 71 71 66 105 113 111 115 123 132 156 182 163 145 158 143 114 105 69 65 330 308 256 250
251 251 253 257 268 271 273 117 69 73 78 80 78 78 71 70 69 72 89 95 94 87 92 93 81 72 82 78 66 96 109 107 125 141 102 43 58 119 143 151 149 138 88 67 91 289 300 289 286